[[[{"header":{"parameterUnit":"kt","parameterCategory":2,"dx":1,"dy":1,"la1":30.253999710083008,"la2":30.299108505249023,"lo1":-89.0895004272461,"lo2":-89.04439544677734,"nx":28,"ny":28,"refTime":"2022-10-04T21:00:00:Z","depth":"0","parameterNumber":2,"parameterNumberName":"U-component_of_CURRENTS"},"data":[0.1015,0.0923,0.0916,0.0822,0.0795,0.0726,0.0679,0.0609,0.0531,0.0266,0.0004,-0.0124,-0.0572,-0.1282,-0.1547,-0.1455,-0.1342,-0.1372,-0.1314,-0.1138,-0.1103,-0.1069,-0.1017,-0.1405,-0.1405,-0.1359,-0.136,-0.136,0.1141,0.1121,0.1053,0.0975,0.094,0.0923,0.0845,0.0773,0.0616,0.0469,0.0309,-0.007,-0.0352,-0.0589,-0.1059,-0.1163,-0.1017,-0.1165,-0.1062,-0.0984,-0.084,-0.0787,-0.1132,-0.1132,-0.1132,-0.1132,-0.1132,-0.1132,0.1376,0.1309,0.1233,0.1125,0.1083,0.1025,0.0942,0.0837,0.0697,0.0496,0.044,0.0262,-0.0015,-0.0362,-0.0457,-0.0767,-0.0676,-0.0837,-0.0849,-0.0833,-0.0754,-0.0599,-0.0927,-0.0927,-0.0927,-0.0926,-0.0926,0,0.1508,0.1494,0.1391,0.1292,0.1209,0.111,0.0989,0.0929,0.0783,0.0664,0.051,0.0432,0.0195,-0.0003,-0.0281,-0.0369,-0.0415,-0.0473,-0.0496,-0.0432,-0.0447,-0.0386,-0.009,-0.0403,-0.04,-0.0397,-0.0395,-0.0394,0.1704,0.1604,0.1459,0.1399,0.131,0.1175,0.1095,0.0977,0.0889,0.0705,0.0649,0.0503,0.0422,0.016,0.0021,-0.0171,-0.0115,-0.0381,-0.0256,-0.0306,-0.0312,-0.0284,-0.0222,-0.0358,-0.0363,-0.0366,-0.037,0,0.1816,0.1717,0.1533,0.1365,0.1325,0.122,0.1069,0.0982,0.0884,0.0758,0.0726,0.0641,0.0525,0.047,0.0356,0.0263,0.0075,0.0057,0.0054,0.0038,-0.0195,-0.0191,-0.0542,-0.0509,-0.0276,-0.0281,-0.0286,0,0.1886,0.1756,0.1592,0.1497,0.1359,0.124,0.1111,0.103,0.0925,0.0828,0.0805,0.0742,0.0731,0.0637,0.0614,0.0426,0.0466,0.0364,0.0345,0.0378,0.0371,0.0345,0.0355,0.0496,0.0498,0.05,0.0502,0,0.1976,0.1754,0.1603,0.1533,0.1326,0.1264,0.1182,0.1074,0.1006,0.0916,0.0858,0.0822,0.0805,0.0738,0.0723,0.0785,0.0568,0.0665,0.0461,0.0451,0.0436,0.043,0.0145,0.0506,0.0506,0.0507,0.0508,0,0.1974,0.1832,0.1652,0.145,0.1394,0.1323,0.1173,0.111,0.1023,0.0989,0.096,0.0974,0.0946,0.1014,0.0907,0.0982,0.0919,0.0905,0.0894,0.0816,0.0884,0.0599,0.0385,0.0354,0.0791,0.0794,0.0797,0,0.2087,0.1861,0.1739,0.1579,0.1447,0.1361,0.1301,0.1215,0.1163,0.1098,0.1129,0.1119,0.1191,0.1197,0.1163,0.1178,0.1076,0.1214,0.1062,0.1056,0.0921,0.0736,0.073,0.0447,0.0839,0.0835,0.0832,0,0.2134,0.1847,0.1825,0.1693,0.152,0.1458,0.1397,0.1282,0.1213,0.1208,0.1135,0.1229,0.1232,0.1281,0.1346,0.131,0.1143,0.134,0.134,0.1174,0.0933,0.0809,0.0768,0.118,0.1176,0.1173,0.0865,0,0.2079,0.191,0.1873,0.1619,0.1562,0.1494,0.1385,0.1352,0.1308,0.1256,0.1264,0.1352,0.1387,0.1425,0.1483,0.1435,0.1409,0.1484,0.1511,0.1442,0.1319,0.1292,0.1647,0.1649,0.1652,0.1653,0,0,0.2163,0.1918,0.1772,0.1654,0.158,0.1485,0.1398,0.1367,0.1325,0.1304,0.1326,0.1406,0.1504,0.1535,0.1522,0.1599,0.1536,0.1606,0.1506,0.1489,0.1474,0.1352,0.1324,0.1657,0.1658,0.1659,0.166,0,0.209,0.1903,0.1777,0.1689,0.1536,0.147,0.1446,0.1346,0.132,0.1328,0.1355,0.1402,0.1533,0.1567,0.1611,0.1623,0.1619,0.1662,0.1584,0.1526,0.1507,0.149,0.1365,0.1339,0.1665,0.1665,0.1664,0,0.2048,0.1871,0.1785,0.1562,0.149,0.1409,0.1369,0.1322,0.1272,0.1353,0.1363,0.1426,0.153,0.1596,0.1643,0.1671,0.1672,0.1755,0.1747,0.173,0.1673,0.1652,0.1633,0.1863,0.1863,0.1862,0,0,0.1995,0.1835,0.1643,0.1534,0.1481,0.1383,0.1356,0.1303,0.1303,0.1309,0.1365,0.1443,0.1512,0.1573,0.1658,0.1753,0.1724,0.1772,0.1763,0.1754,0.1733,0.1675,0.1656,0.1862,0.1862,0.1862,0,0,0.2018,0.1737,0.1621,0.1471,0.1385,0.1307,0.1309,0.1255,0.1288,0.1293,0.1365,0.1396,0.1478,0.1566,0.1547,0.1663,0.171,0.1718,0.1587,0.1577,0.1568,0.1511,0.1603,0,0,0,0,0,0.1824,0.1755,0.1649,0.1599,0.1375,0.132,0.131,0.1256,0.1228,0.123,0.1282,0.134,0.1555,0.1541,0.1578,0.1576,0.1858,0.1858,0.1859,0.1713,0.1702,0.1692,0,0,0,0,0,0,0.1804,0.1737,0.1655,0.1547,0.1498,0.132,0.128,0.1268,0.1227,0.1222,0.132,0.1343,0.1405,0.153,0.1561,0.1557,0.1592,0.1858,0.1859,0.1859,0.1709,0.17,0.1692,0,0,0,0,0,0.1788,0.1735,0.1348,0.1555,0.1512,0.1423,0.1281,0.1269,0.1246,0.1325,0.134,0.1203,0.1403,0.1437,0.1549,0.1539,0.1571,0.1583,0.1858,0.1859,0.1859,0.1705,0,0,0,0,0,0,0.1776,0.1775,0.1344,0.1336,0.1547,0.1437,0.1402,0.1271,0.1356,0.1362,0.1217,0.1214,0.1403,0.1429,0.1454,0.1525,0.1554,0.1566,0.1573,0.1859,0.1859,0.186,0,0,0,0,0,0,0.1804,0.1766,0.134,0.1333,0.1324,0.1449,0.1417,0.1538,0.1367,0.125,0.1244,0.1216,0.1433,0.1424,0.1444,0.1632,0.1541,0.1552,0.156,0.1564,0.1859,0.1859,0,0,0,0,0,0,0.179,0.1759,0.1335,0.1328,0.1321,0.1235,0.1572,0.1389,0.1201,0.1255,0.1198,0.1197,0.1433,0.1449,0.1436,0.1616,0.1628,0.1541,0.1549,0.1554,0.1558,0,0,0,0,0,0,0,0.178,0.1959,0.1379,0.1325,0.1318,0.1259,0.1258,0.1257,0.1201,0.12,0.1199,0.1198,0.1478,0.149,0.1502,0.1602,0,0,0.154,0.1545,0,0,0,0,0,0,0,0,0.1976,0.1963,0.1378,0.1376,0.1374,0.1259,0.1258,0.1257,0.1201,0.12,0.1199,0.1198,0.1481,0.1491,0.1501,0,0,0,0,0,0,0,0,0,0,0,0,0,0,0,0.1378,0.1376,0,0.1258,0.1258,0.1257,0.1201,0.12,0.1199,0.1198,0.1484,0.1492,0.15,0,0,0,0,0,0,0,0,0,0,0,0,0,0,0,0,0,0,0,0,0,0,0,0,0,0,0,0,0,0,0,0,0,0,0,0,0,0,0,0,0,0,0,0,0,0,0,0,0,0,0,0,0,0,0,0,0,0,0,0,0,0,0,0,0,0,0,0,0]}],[{"header":{"parameterUnit":"kt","parameterCategory":2,"dx":1,"dy":1,"la1":30.253999710083008,"la2":30.299108505249023,"lo1":-89.0895004272461,"lo2":-89.04439544677734,"nx":28,"ny":28,"refTime":"2022-10-04T21:00:00:Z","depth":"0","parameterNumber":3,"parameterNumberName":"V-component_of_CURRENTS"},"data":[0.0278,0.0231,0.023,0.0074,0.0036,-0.0124,-0.0207,-0.0362,-0.0543,-0.0844,-0.1016,-0.1142,-0.0264,0.1128,0.2058,0.2164,0.2564,0.2403,0.2547,0.2434,0.2398,0.2364,0.2522,0.2716,0.2717,0.3245,0.325,0.3255,0.033,0.0344,0.034,0.0319,0.0225,0.0264,0.0158,0.0042,-0.0185,-0.0408,-0.0609,-0.0595,-0.0245,0.0189,0.0904,0.125,0.1443,0.1514,0.1839,0.1932,0.1358,0.1475,0.1449,0.1449,0.1449,0.1448,0.1448,0.1447,0.0442,0.0449,0.0496,0.0485,0.0473,0.0396,0.0325,0.0255,0.0114,-0.0089,-0.0103,-0.0347,-0.0054,-0.0079,0.007,0.0631,0.0531,0.0936,0.1025,0.1049,0.1263,0.0568,0.0299,0.0298,0.0297,0.0296,0.0295,0,0.0518,0.0544,0.0624,0.0628,0.0629,0.0628,0.0606,0.0537,0.0549,0.0434,0.0274,0.0181,0.0087,0.0096,0.0072,0.0161,0.078,0.0472,0.0881,0.1398,0.1492,0.1653,0.1062,0.0789,0.079,0.0791,0.0792,0.0792,0.0542,0.0607,0.0747,0.076,0.0828,0.0846,0.0832,0.0897,0.0841,0.0775,0.0695,0.0583,0.0483,0.0345,0.0421,0.0374,0.0715,0.0513,0.0739,0.1131,0.1273,0.1354,0.1491,0.0807,0.0805,0.0803,0.0802,0,0.0523,0.0679,0.0809,0.0965,0.0991,0.1002,0.1052,0.1006,0.103,0.0938,0.0919,0.096,0.0847,0.089,0.0836,0.0906,0.0966,0.0785,0.0924,0.0938,0.12,0.1325,0.118,0.1315,0.0574,0.0569,0.0565,0,0.0582,0.0692,0.0875,0.0966,0.1005,0.1182,0.1164,0.1234,0.1233,0.1169,0.1284,0.1205,0.1303,0.1222,0.1278,0.1141,0.1152,0.1179,0.1175,0.1326,0.1331,0.1659,0.1801,0.1289,0.1292,0.1293,0.1295,0,0.0501,0.0806,0.0941,0.1045,0.1283,0.13,0.1384,0.1457,0.1468,0.1472,0.143,0.1436,0.1401,0.1391,0.1421,0.1527,0.1281,0.144,0.1293,0.1285,0.1365,0.1371,0.1507,0.1298,0.1299,0.1299,0.13,0,0.0589,0.0733,0.0979,0.1139,0.1208,0.1349,0.1409,0.1557,0.1594,0.1634,0.1633,0.169,0.1652,0.1759,0.1667,0.1751,0.1731,0.1735,0.1726,0.1631,0.1734,0.1624,0.1415,0.1809,0.1675,0.1678,0.1681,0,0.0415,0.071,0.085,0.1107,0.1265,0.1409,0.1523,0.1669,0.1764,0.1815,0.1842,0.1907,0.2021,0.2015,0.1984,0.2003,0.1912,0.2053,0.191,0.1904,0.1804,0.1591,0.1718,0.1477,0.1727,0.1722,0.1719,0,0.0285,0.0603,0.0642,0.0732,0.1073,0.125,0.1423,0.1613,0.161,0.1879,0.1874,0.2067,0.2057,0.212,0.2193,0.2145,0.1989,0.2199,0.2199,0.208,0.1786,0.167,0.1628,0.2035,0.203,0.2026,0.1755,0,0.0311,0.0426,0.0538,0.078,0.0981,0.1207,0.1434,0.1585,0.1699,0.1849,0.1943,0.2146,0.2254,0.2293,0.2398,0.231,0.2309,0.2379,0.2413,0.2313,0.2212,0.2183,0.2556,0.2558,0.256,0.2562,0,0,0.0101,0.0241,0.0382,0.0586,0.0745,0.0968,0.1172,0.1382,0.1802,0.1833,0.1923,0.2197,0.2355,0.2406,0.2412,0.2525,0.2474,0.2526,0.2384,0.2364,0.2346,0.2243,0.2213,0.2565,0.2565,0.2566,0.2567,0,0.011,0.0138,0.0256,0.0474,0.0788,0.0991,0.1041,0.1441,0.1578,0.1865,0.1959,0.205,0.2395,0.2459,0.2526,0.2554,0.2559,0.2579,0.2473,0.2403,0.2381,0.2361,0.2255,0.2227,0.2571,0.2571,0.257,0,0.0022,0.0146,0.019,0.0469,0.0712,0.0956,0.1072,0.1369,0.1539,0.1742,0.2033,0.2152,0.2316,0.2491,0.2566,0.2589,0.2615,0.2704,0.2696,0.2659,0.2587,0.2563,0.2541,0.2817,0.2818,0.2818,0,0,0.003,0.0098,0.0381,0.049,0.061,0.0953,0.1147,0.133,0.1614,0.1747,0.1972,0.2142,0.228,0.2387,0.2571,0.2743,0.2708,0.2731,0.2719,0.271,0.2668,0.2594,0.2571,0.282,0.282,0.282,0,0,0.0088,0.0299,0.0322,0.0441,0.0734,0.1169,0.1348,0.1488,0.1782,0.1775,0.1996,0.2062,0.2233,0.2354,0.2357,0.2537,0.2583,0.2592,0.248,0.2468,0.2457,0.2362,0.2453,0,0,0,0,0,0.0193,0.0246,0.026,0.031,0.0722,0.1111,0.1203,0.1494,0.1503,0.1654,0.1846,0.1916,0.2379,0.239,0.2457,0.2436,0.2844,0.2839,0.2835,0.2732,0.2717,0.2704,0,0,0,0,0,0,0.0214,0.026,0.0266,0.0647,0.0748,0.1107,0.1182,0.1272,0.1496,0.1522,0.1882,0.1927,0.2099,0.2367,0.2425,0.2399,0.2434,0.2842,0.2838,0.2835,0.2727,0.2715,0.2704,0,0,0,0,0,0.0233,0.0271,0.0785,0.0662,0.0749,0.1155,0.1178,0.1254,0.1459,0.1757,0.1816,0.1655,0.2097,0.2157,0.2402,0.2367,0.2395,0.2416,0.284,0.2837,0.2834,0.2721,0,0,0,0,0,0,0.0247,0.0436,0.0818,0.0868,0.0603,0.1151,0.1218,0.1236,0.1685,0.1748,0.1532,0.1545,0.2098,0.2144,0.219,0.2343,0.2363,0.2385,0.2398,0.2837,0.2835,0.2833,0,0,0,0,0,0,0.0419,0.0471,0.0845,0.0751,0.0794,0.1144,0.1203,0.1427,0.1679,0.1438,0.1464,0.153,0.1938,0.2136,0.2172,0.2526,0.2339,0.2359,0.2373,0.2382,0.2836,0.2834,0,0,0,0,0,0,0.0453,0.05,0.0742,0.0774,0.0813,0.1411,0.1352,0.1708,0.1738,0.1409,0.173,0.1726,0.1919,0.1967,0.2159,0.2497,0.2519,0.2339,0.2353,0.2363,0.237,0,0,0,0,0,0,0,0.0481,0.0013,0.0498,0.0794,0.0828,0.1324,0.1341,0.1357,0.1737,0.1734,0.1731,0.1727,0.2222,0.2244,0.2267,0.2474,0,0,0.2337,0.2347,0,0,0,0,0,0,0,0,0.0008,0.0012,0.05,0.0509,0.0517,0.1327,0.134,0.1353,0.1736,0.1734,0.1731,0.1729,0.2228,0.2246,0.2264,0,0,0,0,0,0,0,0,0,0,0,0,0,0,0,0.0501,0.0508,0,0.1329,0.134,0.135,0.1736,0.1734,0.1732,0.173,0.2233,0.2248,0.2263,0,0,0,0,0,0,0,0,0,0,0,0,0,0,0,0,0,0,0,0,0,0,0,0,0,0,0,0,0,0,0,0,0,0,0,0,0,0,0,0,0,0,0,0,0,0,0,0,0,0,0,0,0,0,0,0,0,0,0,0,0,0,0,0,0,0,0,0,0]}]],[[{"header":{"parameterUnit":"kt","parameterCategory":2,"dx":1,"dy":1,"la1":30.253999710083008,"la2":30.299108505249023,"lo1":-89.0895004272461,"lo2":-89.04439544677734,"nx":28,"ny":28,"refTime":"2022-10-04T21:00:00:Z","depth":"2","parameterNumber":2,"parameterNumberName":"U-component_of_CURRENTS"},"data":[-0.1933,-0.1949,-0.1959,-0.1975,-0.1945,-0.1951,-0.2005,-0.2106,-0.2221,-0.2278,-0.2199,-0.2303,-0.195,-0.1613,-0.1394,-0.1149,-0.1149,-0.1052,-0.1604,-0.1452,-0.1474,-0.1329,-0.1446,0,0,0,0,0,-0.1912,-0.1895,-0.1899,-0.1916,-0.1946,-0.1916,-0.2077,-0.2152,-0.2305,-0.2487,-0.254,-0.2142,-0.195,-0.1685,-0.1405,-0.1368,-0.1238,-0.1246,-0.1074,-0.1098,-0.1119,-0.1174,-0.0885,-0.0884,-0.0882,-0.088,0,0,-0.188,-0.1886,-0.1867,-0.1858,-0.1874,-0.196,-0.2012,-0.2157,-0.2321,-0.252,-0.2533,-0.2441,-0.2264,-0.1987,-0.1768,-0.1579,-0.1734,-0.1615,-0.1615,-0.162,-0.1706,-0.1672,-0.1558,-0.156,-0.1563,-0.1565,-0.1567,0,-0.1914,-0.1853,-0.1871,-0.1848,-0.1838,-0.1918,-0.1974,-0.208,-0.2257,-0.2373,-0.2489,-0.2482,-0.2357,-0.2165,-0.1997,-0.1849,-0.1812,-0.1717,-0.1956,-0.1621,-0.1567,-0.1533,-0.1548,-0.1432,-0.1434,-0.1436,-0.1437,-0.1438,-0.1915,-0.1899,-0.1882,-0.1881,-0.1843,-0.1856,-0.1906,-0.2011,-0.2136,-0.2311,-0.2398,-0.2398,-0.2422,-0.2275,-0.219,-0.1998,-0.2005,-0.1756,-0.1824,-0.2027,-0.1993,-0.1996,-0.1999,-0.1461,-0.1458,-0.1456,-0.1454,0,-0.1927,-0.191,-0.192,-0.1941,-0.1933,-0.1934,-0.2009,-0.2101,-0.2169,-0.2312,-0.2327,-0.2445,-0.2394,-0.2333,-0.2198,-0.2185,-0.2077,-0.2015,-0.1755,-0.1704,-0.1985,-0.1991,-0.1959,-0.1961,-0.1962,-0.1964,-0.1965,0,-0.1948,-0.1944,-0.1916,-0.1919,-0.196,-0.2007,-0.2067,-0.2134,-0.2236,-0.2359,-0.2401,-0.2473,-0.2436,-0.2395,-0.2266,-0.2172,-0.214,-0.2117,-0.2081,-0.1892,-0.188,-0.2053,-0.2054,-0.2065,-0.2067,-0.2069,-0.207,0,-0.1869,-0.1948,-0.1954,-0.1976,-0.2062,-0.2058,-0.2102,-0.2218,-0.2303,-0.2368,-0.2412,-0.2463,-0.2444,-0.2369,-0.2264,-0.2267,-0.2152,-0.2154,-0.2099,-0.2096,-0.1892,-0.1875,-0.2073,-0.2073,-0.2073,-0.2074,-0.2075,0,-0.185,-0.1877,-0.1935,-0.1977,-0.2003,-0.205,-0.214,-0.224,-0.2345,-0.2358,-0.2401,-0.2414,-0.2455,-0.238,-0.233,-0.2349,-0.2222,-0.217,-0.2159,-0.2244,-0.2187,-0.175,-0.1761,-0.1968,-0.1969,-0.1969,-0.197,0,-0.1727,-0.1812,-0.1816,-0.1907,-0.1952,-0.1965,-0.2072,-0.2156,-0.2189,-0.2249,-0.2277,-0.2338,-0.2305,-0.2288,-0.2302,-0.2276,-0.2224,-0.2285,-0.2107,-0.21,-0.213,-0.2215,-0.2001,-0.178,-0.198,-0.1979,-0.1978,0,-0.1625,-0.1636,-0.1628,-0.1613,-0.1691,-0.1786,-0.1891,-0.2002,-0.2032,-0.2077,-0.2124,-0.2266,-0.2206,-0.2269,-0.2275,-0.2281,-0.2227,-0.2201,-0.22,-0.204,-0.212,-0.221,-0.221,-0.2232,-0.2234,-0.2235,-0.1986,0,-0.149,-0.1473,-0.1537,-0.1553,-0.1636,-0.1726,-0.1779,-0.183,-0.1779,-0.1819,-0.1914,-0.1982,-0.2062,-0.2094,-0.2113,-0.22,-0.2108,-0.2132,-0.2062,-0.2148,-0.2024,-0.2018,-0.2078,-0.2078,-0.2077,-0.2076,0,0,-0.1315,-0.1335,-0.1324,-0.1396,-0.1432,-0.1416,-0.1506,-0.1578,-0.1672,-0.1694,-0.1603,-0.1791,-0.1843,-0.2009,-0.2025,-0.2092,-0.2022,-0.2034,-0.2127,-0.2133,-0.2138,-0.2024,-0.2018,-0.2075,-0.2075,-0.2075,-0.2075,0,-0.1273,-0.1213,-0.1253,-0.1313,-0.1354,-0.1405,-0.141,-0.149,-0.1476,-0.1604,-0.1551,-0.1607,-0.1778,-0.1831,-0.1889,-0.2069,-0.1963,-0.2074,-0.2116,-0.2121,-0.2127,-0.2133,-0.2022,-0.2018,-0.2073,-0.2073,-0.2073,0,-0.1139,-0.113,-0.1127,-0.1199,-0.1238,-0.1341,-0.1259,-0.1348,-0.1403,-0.1375,-0.1443,-0.1478,-0.1575,-0.1715,-0.1766,-0.1736,-0.1894,-0.1907,-0.1914,-0.1919,-0.1921,-0.1931,-0.1939,-0.1817,-0.1816,-0.1814,0,0,-0.1096,-0.1094,-0.114,-0.1191,-0.1218,-0.1254,-0.131,-0.1283,-0.1351,-0.1356,-0.1375,-0.1414,-0.1516,-0.1552,-0.1657,-0.1834,-0.1793,-0.1872,-0.1884,-0.1893,-0.1904,-0.1909,-0.192,-0.181,-0.1809,-0.1809,0,0,-0.1102,-0.1088,-0.0996,-0.1063,-0.1141,-0.1263,-0.1323,-0.1287,-0.1349,-0.1273,-0.1282,-0.1292,-0.1397,-0.1452,-0.1384,-0.1596,-0.1551,-0.157,-0.1542,-0.1558,-0.157,-0.1543,-0.1299,0,0,0,0,0,-0.1024,-0.1097,-0.1013,-0.102,-0.1114,-0.1301,-0.1328,-0.1286,-0.1158,-0.1222,-0.1215,-0.1166,-0.14,-0.1342,-0.1383,-0.1419,-0.1748,-0.1759,-0.1769,-0.1776,-0.1792,-0.1806,0,0,0,0,0,0,-0.1028,-0.1035,-0.1015,-0.1122,-0.1145,-0.1296,-0.1142,-0.1139,-0.1148,-0.1122,-0.1175,-0.1173,-0.1189,-0.1322,-0.1359,-0.1391,-0.1286,-0.1752,-0.1761,-0.177,-0.1782,-0.1795,-0.1806,0,0,0,0,0,-0.1031,-0.1037,-0.1148,-0.1127,-0.1146,-0.1136,-0.1131,-0.1127,-0.1122,-0.1185,-0.1177,-0.1065,-0.1197,-0.122,-0.1344,-0.1372,-0.1261,-0.1275,-0.1758,-0.1765,-0.1772,-0.1788,0,0,0,0,0,0,-0.1033,-0.1091,-0.1156,-0.1168,-0.1008,-0.1126,-0.1126,-0.1117,-0.1181,-0.1177,-0.1081,-0.1061,-0.1206,-0.1222,-0.1241,-0.1362,-0.1241,-0.1255,-0.1263,-0.1764,-0.1769,-0.1774,0,0,0,0,0,0,-0.1087,-0.1099,-0.1163,-0.1014,-0.1009,-0.1117,-0.1116,-0.1295,-0.1181,-0.1075,-0.106,-0.107,-0.1139,-0.1225,-0.1239,-0.1528,-0.1225,-0.1238,-0.1247,-0.1253,-0.1768,-0.1773,0,0,0,0,0,0,-0.1095,-0.1106,-0.1012,-0.1008,-0.1003,-0.1139,-0.1278,-0.1352,-0.1105,-0.1073,-0.1074,-0.1059,-0.1143,-0.1158,-0.1239,-0.1523,-0.1527,-0.1225,-0.1234,-0.1241,-0.1245,0,0,0,0,0,0,0,-0.1102,-0.0993,-0.1073,-0.1003,-0.0998,-0.1273,-0.1277,-0.1282,-0.1102,-0.1089,-0.1077,-0.1065,-0.1149,-0.1164,-0.1179,-0.1519,0,0,-0.1224,-0.123,0,0,0,0,0,0,0,0,-0.0992,-0.0992,-0.1074,-0.1075,-0.1077,-0.1273,-0.1277,-0.1281,-0.11,-0.109,-0.108,-0.107,-0.1153,-0.1165,-0.1177,0,0,0,0,0,0,0,0,0,0,0,0,0,0,0,-0.1074,-0.1075,0,-0.1274,-0.1277,-0.128,-0.1098,-0.109,-0.1082,-0.1074,-0.1157,-0.1166,-0.1176,0,0,0,0,0,0,0,0,0,0,0,0,0,0,0,0,0,0,0,0,0,0,0,0,0,0,0,0,0,0,0,0,0,0,0,0,0,0,0,0,0,0,0,0,0,0,0,0,0,0,0,0,0,0,0,0,0,0,0,0,0,0,0,0,0,0,0,0,0]}],[{"header":{"parameterUnit":"kt","parameterCategory":2,"dx":1,"dy":1,"la1":30.253999710083008,"la2":30.299108505249023,"lo1":-89.0895004272461,"lo2":-89.04439544677734,"nx":28,"ny":28,"refTime":"2022-10-04T21:00:00:Z","depth":"2","parameterNumber":3,"parameterNumberName":"V-component_of_CURRENTS"},"data":[-0.2174,-0.2213,-0.2252,-0.2277,-0.2312,-0.2321,-0.2285,-0.2145,-0.1824,-0.1292,-0.0782,-0.0179,0.0401,0.0635,0.0868,0.0989,0.0855,0.0924,0.108,0.0836,0.0814,0.0987,0.0885,0,0,0,0,0,-0.2191,-0.2246,-0.2295,-0.2327,-0.2339,-0.2364,-0.2277,-0.2195,-0.1954,-0.1491,-0.1068,-0.0347,0.0219,0.0552,0.103,0.1309,0.1204,0.1155,0.0982,0.0969,0.0955,0.0891,0.1097,0.1095,0.1094,0.1092,0,0,-0.2214,-0.2254,-0.2303,-0.2341,-0.2361,-0.2341,-0.2309,-0.2177,-0.1971,-0.1595,-0.1219,-0.0665,-0.0187,0.0613,0.0823,0.1024,0.1111,0.1114,0.11,0.1084,0.1039,0.092,0.1277,0.1278,0.1278,0.1278,0.1278,0,-0.2203,-0.2241,-0.2272,-0.2323,-0.2338,-0.2325,-0.226,-0.2189,-0.1976,-0.1748,-0.133,-0.1032,-0.0381,0.0158,0.061,0.0809,0.0779,0.0907,0.0772,0.0715,0.0579,0.0622,0.0588,0.0888,0.0886,0.0885,0.0884,0.0883,-0.2155,-0.2204,-0.225,-0.2267,-0.2278,-0.2271,-0.2243,-0.2119,-0.2009,-0.1633,-0.1495,-0.1123,-0.0781,-0.0135,0.0302,0.0676,0.0538,0.0839,0.0821,0.0557,0.061,0.0575,0.0543,0.086,0.0863,0.0866,0.0867,0,-0.2114,-0.2147,-0.2195,-0.2195,-0.2191,-0.22,-0.2108,-0.2043,-0.1887,-0.1671,-0.1604,-0.1216,-0.0854,-0.0582,-0.0121,0.0101,0.0438,0.0547,0.0389,0.0461,0.0531,0.0505,0.0859,0.0864,0.0869,0.0873,0.0876,0,-0.205,-0.2083,-0.2112,-0.2134,-0.2148,-0.2088,-0.2038,-0.1944,-0.1763,-0.1614,-0.1435,-0.1208,-0.0874,-0.0592,-0.0397,0.0004,0.0028,0.0254,0.0345,0.0285,0.0283,0.0178,0.0162,0.0296,0.0294,0.0293,0.0291,0,-0.1973,-0.2005,-0.2065,-0.2058,-0.201,-0.2002,-0.1955,-0.18,-0.1713,-0.1498,-0.1396,-0.1128,-0.0943,-0.0698,-0.0436,-0.0465,-0.0009,0.0028,0.0238,0.0241,0.0348,0.0353,0.0289,0.0289,0.0288,0.0288,0.0287,0,-0.1898,-0.1926,-0.1998,-0.195,-0.1942,-0.1942,-0.182,-0.177,-0.1562,-0.1477,-0.131,-0.1163,-0.0939,-0.0917,-0.0531,-0.0636,-0.0478,-0.0308,-0.0292,-0.0137,-0.0086,0.0066,0.0176,-0.0142,-0.0146,-0.015,-0.0153,0,-0.1803,-0.1878,-0.1847,-0.1872,-0.1881,-0.1778,-0.1738,-0.1643,-0.1545,-0.1413,-0.1229,-0.11,-0.1076,-0.1004,-0.0857,-0.061,-0.0499,-0.0651,-0.0232,-0.0221,-0.0164,-0.0072,-0.01,0.0111,-0.02,-0.0195,-0.0191,0,-0.1715,-0.1727,-0.1732,-0.1724,-0.1672,-0.1652,-0.1623,-0.1529,-0.147,-0.1391,-0.1274,-0.1146,-0.1057,-0.0969,-0.0849,-0.0705,-0.0577,-0.0654,-0.064,-0.0585,-0.0227,-0.015,-0.0112,-0.0467,-0.0461,-0.0457,-0.0228,0,-0.1604,-0.1619,-0.165,-0.1624,-0.1599,-0.1611,-0.1515,-0.1482,-0.1435,-0.1351,-0.1226,-0.1087,-0.0943,-0.0908,-0.0856,-0.0705,-0.0689,-0.0607,-0.0552,-0.0538,-0.0447,-0.0419,-0.0716,-0.0713,-0.0711,-0.0709,0,0,-0.1488,-0.1517,-0.1462,-0.1482,-0.1461,-0.1368,-0.1387,-0.1332,-0.125,-0.1198,-0.1204,-0.0984,-0.0902,-0.0743,-0.0762,-0.0717,-0.063,-0.0734,-0.0569,-0.0555,-0.054,-0.0452,-0.0427,-0.0705,-0.0705,-0.0704,-0.0703,0,-0.1432,-0.1408,-0.1453,-0.1417,-0.1378,-0.1318,-0.1328,-0.1258,-0.1217,-0.1182,-0.1066,-0.0976,-0.0892,-0.0764,-0.0695,-0.0699,-0.0592,-0.0695,-0.0751,-0.0558,-0.0547,-0.0535,-0.0448,-0.0427,-0.0698,-0.0698,-0.0698,0,-0.1325,-0.13,-0.1312,-0.1272,-0.1234,-0.1224,-0.1147,-0.1151,-0.113,-0.1008,-0.0979,-0.0892,-0.0763,-0.0708,-0.0681,-0.0657,-0.0541,-0.0615,-0.0623,-0.0615,-0.0409,-0.0398,-0.0388,-0.0513,-0.0513,-0.0513,0,0,-0.1276,-0.1298,-0.122,-0.125,-0.1235,-0.1156,-0.1142,-0.1104,-0.1041,-0.1018,-0.0943,-0.0855,-0.0767,-0.0731,-0.0654,-0.0615,-0.0506,-0.06,-0.0609,-0.0617,-0.0613,-0.0412,-0.0402,-0.0514,-0.0514,-0.0514,0,0,-0.1247,-0.1194,-0.1153,-0.1187,-0.1137,-0.1055,-0.1075,-0.1026,-0.0971,-0.0976,-0.0861,-0.0837,-0.079,-0.0722,-0.074,-0.0643,-0.0597,-0.0592,-0.0711,-0.072,-0.0729,-0.0745,-0.066,0,0,0,0,0,-0.1149,-0.1201,-0.1165,-0.116,-0.1102,-0.1068,-0.1057,-0.1001,-0.0979,-0.0988,-0.0908,-0.0858,-0.0697,-0.071,-0.0691,-0.0698,-0.052,-0.0519,-0.0518,-0.066,-0.0671,-0.068,0,0,0,0,0,0,-0.1146,-0.1141,-0.1163,-0.1088,-0.1074,-0.1066,-0.1002,-0.0986,-0.0977,-0.0971,-0.0872,-0.0854,-0.0776,-0.0715,-0.0699,-0.0708,-0.0665,-0.052,-0.0519,-0.0518,-0.0664,-0.0673,-0.068,0,0,0,0,0,-0.1144,-0.114,-0.107,-0.1085,-0.1073,-0.1005,-0.1001,-0.0988,-0.0979,-0.0871,-0.0853,-0.0943,-0.0778,-0.0759,-0.0705,-0.0717,-0.0676,-0.067,-0.0519,-0.0518,-0.0518,-0.0668,0,0,0,0,0,0,-0.1142,-0.1111,-0.1066,-0.1059,-0.1084,-0.1004,-0.0992,-0.0989,-0.0878,-0.0862,-0.0935,-0.093,-0.0779,-0.0764,-0.075,-0.0725,-0.0685,-0.0679,-0.0675,-0.0519,-0.0518,-0.0517,0,0,0,0,0,0,-0.1113,-0.1106,-0.1062,-0.1063,-0.1056,-0.1004,-0.0994,-0.0936,-0.0876,-0.0946,-0.094,-0.0934,-0.0796,-0.0768,-0.0757,-0.0669,-0.0692,-0.0686,-0.0682,-0.068,-0.0518,-0.0518,0,0,0,0,0,0,-0.1108,-0.1102,-0.1064,-0.1058,-0.1052,-0.0964,-0.0949,-0.0888,-0.0898,-0.095,-0.0897,-0.0896,-0.0801,-0.0788,-0.0761,-0.0679,-0.0671,-0.0691,-0.0688,-0.0685,-0.0683,0,0,0,0,0,0,0,-0.1104,-0.117,-0.1114,-0.1054,-0.1048,-0.0995,-0.0993,-0.099,-0.0898,-0.0898,-0.0897,-0.0896,-0.0724,-0.0718,-0.0711,-0.0687,0,0,-0.0692,-0.0689,0,0,0,0,0,0,0,0,-0.1171,-0.117,-0.1113,-0.1112,-0.1111,-0.0995,-0.0993,-0.0991,-0.0898,-0.0898,-0.0897,-0.0896,-0.0722,-0.0717,-0.0712,0,0,0,0,0,0,0,0,0,0,0,0,0,0,0,-0.1113,-0.1112,0,-0.0995,-0.0993,-0.0991,-0.0898,-0.0898,-0.0897,-0.0897,-0.0721,-0.0717,-0.0712,0,0,0,0,0,0,0,0,0,0,0,0,0,0,0,0,0,0,0,0,0,0,0,0,0,0,0,0,0,0,0,0,0,0,0,0,0,0,0,0,0,0,0,0,0,0,0,0,0,0,0,0,0,0,0,0,0,0,0,0,0,0,0,0,0,0,0,0,0]}]],[[{"header":{"parameterUnit":"kt","parameterCategory":2,"dx":1,"dy":1,"la1":30.253999710083008,"la2":30.299108505249023,"lo1":-89.0895004272461,"lo2":-89.04439544677734,"nx":28,"ny":28,"refTime":"2022-10-04T21:00:00:Z","depth":"4","parameterNumber":2,"parameterNumberName":"U-component_of_CURRENTS"},"data":[-0.1149,-0.1136,-0.1121,-0.1002,-0.0987,-0.1003,-0.1089,-0.1135,-0.1085,-0.1253,-0.1311,-0.1476,-0.1569,-0.166,-0.1646,-0.1668,-0.173,-0.1885,-0.1879,-0.2091,-0.2116,-0.2139,-0.2138,0,0,0,0,0,-0.1237,-0.118,-0.1214,-0.1165,-0.127,-0.1338,-0.1454,-0.1534,-0.1641,-0.1509,-0.1669,-0.1611,-0.1655,-0.1757,-0.1691,-0.1861,-0.1982,-0.1772,-0.1942,-0.2107,-0.2135,-0.2125,0,0,0,0,0,0,-0.1346,-0.1298,-0.1321,-0.1399,-0.1513,-0.1488,-0.16,-0.1624,-0.1718,-0.1892,-0.1788,-0.1958,-0.2077,-0.2074,-0.2013,-0.2001,-0.1999,-0.1955,-0.1989,-0.2017,-0.198,-0.1825,-0.1585,0,0,0,0,0,-0.1427,-0.1455,-0.1454,-0.1547,-0.1645,-0.1731,-0.1877,-0.1906,-0.206,-0.2312,-0.2228,-0.2291,-0.2226,-0.2246,-0.2226,-0.2166,-0.2429,-0.2296,-0.2312,-0.2386,-0.2295,-0.2265,-0.2276,-0.224,-0.2244,-0.2246,-0.2247,0,-0.157,-0.1549,-0.1621,-0.1661,-0.1734,-0.1905,-0.2023,-0.2274,-0.2314,-0.2517,-0.2467,-0.2606,-0.2658,-0.2464,-0.2525,-0.2463,-0.2429,-0.2368,-0.2447,-0.234,-0.2302,-0.2307,-0.231,-0.227,-0.2268,-0.2266,-0.2264,0,-0.1644,-0.1678,-0.1656,-0.1759,-0.1843,-0.1897,-0.2179,-0.227,-0.2524,-0.2618,-0.272,-0.2898,-0.2866,-0.2907,-0.2872,-0.2767,-0.2669,-0.2568,-0.2736,-0.2703,-0.2353,-0.2348,-0.2307,-0.2298,-0.2292,-0.2286,-0.2281,0,-0.1763,-0.1756,-0.1841,-0.1824,-0.1892,-0.1989,-0.2146,-0.2257,-0.2482,-0.2527,-0.2817,-0.286,-0.3001,-0.2986,-0.2954,-0.2781,-0.2926,-0.2648,-0.2604,-0.2839,-0.2831,-0.2815,-0.2803,-0.2927,-0.2928,-0.2928,-0.2929,0,-0.1861,-0.187,-0.186,-0.1863,-0.193,-0.2002,-0.2095,-0.2246,-0.2342,-0.2594,-0.2708,-0.2844,-0.294,-0.2975,-0.2917,-0.2939,-0.2882,-0.2902,-0.2642,-0.2621,-0.2815,-0.2802,-0.293,-0.293,-0.293,-0.2931,-0.2931,0,-0.1948,-0.1934,-0.1922,-0.196,-0.1968,-0.2023,-0.2136,-0.2206,-0.2367,-0.2456,-0.2606,-0.2696,-0.2813,-0.2811,-0.2847,-0.2853,-0.2832,-0.2787,-0.2784,-0.256,-0.2472,-0.2559,-0.2664,-0.2662,-0.2661,-0.2661,-0.266,0,-0.2009,-0.1975,-0.1998,-0.1996,-0.1975,-0.2035,-0.21,-0.2158,-0.2243,-0.2355,-0.2424,-0.2552,-0.2539,-0.2645,-0.2685,-0.2694,-0.2711,-0.2695,-0.268,-0.2677,-0.2467,-0.252,-0.2754,-0.2646,-0.2648,-0.2649,-0.265,0,-0.2035,-0.2027,-0.2022,-0.2015,-0.2036,-0.2034,-0.21,-0.2138,-0.2203,-0.2254,-0.2352,-0.2417,-0.2494,-0.2524,-0.2563,-0.2598,-0.2673,-0.2603,-0.2604,-0.2543,-0.2748,-0.2525,-0.2511,-0.2737,-0.274,-0.2743,-0.2641,0,-0.2036,-0.2037,-0.2035,-0.2024,-0.2041,-0.2036,-0.2059,-0.2102,-0.2138,-0.2155,-0.2254,-0.2298,-0.2385,-0.2386,-0.2396,-0.251,-0.2467,-0.2481,-0.2447,-0.2533,-0.2466,-0.2474,-0.2358,-0.2356,-0.2355,-0.2354,0,0,-0.2052,-0.2028,-0.2031,-0.2018,-0.2015,-0.2025,-0.2022,-0.2047,-0.2063,-0.209,-0.21,-0.22,-0.2218,-0.23,-0.2339,-0.2337,-0.2342,-0.2354,-0.2482,-0.2496,-0.2509,-0.2452,-0.2461,-0.2351,-0.2351,-0.2351,-0.235,0,-0.2014,-0.2032,-0.2029,-0.2022,-0.201,-0.2003,-0.2013,-0.2002,-0.2024,-0.2069,-0.2074,-0.2132,-0.2182,-0.2208,-0.2227,-0.2313,-0.2295,-0.2334,-0.2407,-0.2468,-0.2484,-0.2498,-0.2445,-0.2454,-0.2347,-0.2347,-0.2347,0,-0.1997,-0.1978,-0.1984,-0.1973,-0.1964,-0.1961,-0.1943,-0.195,-0.1967,-0.196,-0.2012,-0.2039,-0.206,-0.2123,-0.2155,-0.2136,-0.2246,-0.2218,-0.2226,-0.2236,-0.2296,-0.2315,-0.2331,-0.2121,-0.212,-0.212,0,0,-0.1971,-0.1974,-0.1947,-0.1961,-0.1958,-0.194,-0.1942,-0.1936,-0.194,-0.1954,-0.1973,-0.2002,-0.2038,-0.2067,-0.2089,-0.215,-0.2137,-0.2192,-0.2203,-0.2212,-0.2226,-0.2289,-0.2307,-0.2117,-0.2117,-0.2117,0,0,-0.1951,-0.1918,-0.1919,-0.1932,-0.1922,-0.1885,-0.1902,-0.1898,-0.1928,-0.1941,-0.1941,-0.1949,-0.2016,-0.2016,-0.1985,-0.2091,-0.2045,-0.2052,-0.2098,-0.2111,-0.2121,-0.2132,-0.1959,0,0,0,0,0,-0.1898,-0.1917,-0.1919,-0.1917,-0.1901,-0.1885,-0.1884,-0.1878,-0.1883,-0.1902,-0.1923,-0.1916,-0.2,-0.1972,-0.1979,-0.2035,-0.2088,-0.2093,-0.2098,-0.2171,-0.2185,-0.2196,0,0,0,0,0,0,-0.1896,-0.1893,-0.1918,-0.1879,-0.1875,-0.1884,-0.1864,-0.1863,-0.1881,-0.1882,-0.191,-0.1915,-0.191,-0.1968,-0.1975,-0.2029,-0.1956,-0.209,-0.2094,-0.2098,-0.2175,-0.2187,-0.2197,0,0,0,0,0,-0.1895,-0.1892,-0.1872,-0.1879,-0.1876,-0.1866,-0.1864,-0.1863,-0.1889,-0.1884,-0.1889,-0.1888,-0.1909,-0.1917,-0.1972,-0.2026,-0.1952,-0.1954,-0.2093,-0.2096,-0.2099,-0.2181,0,0,0,0,0,0,-0.1894,-0.1896,-0.1871,-0.1869,-0.1882,-0.1867,-0.1865,-0.1864,-0.1891,-0.1894,-0.1859,-0.1859,-0.1909,-0.1915,-0.1921,-0.2027,-0.1948,-0.1951,-0.1952,-0.2095,-0.2098,-0.2101,0,0,0,0,0,0,-0.1896,-0.1894,-0.187,-0.1874,-0.1873,-0.1868,-0.1866,-0.1891,-0.1893,-0.1866,-0.1866,-0.1859,-0.1915,-0.1913,-0.1918,-0.1956,-0.1945,-0.1948,-0.1949,-0.195,-0.2098,-0.21,0,0,0,0,0,0,-0.1895,-0.1894,-0.1874,-0.1873,-0.1873,-0.1857,-0.1892,-0.1889,-0.1859,-0.1867,-0.1859,-0.1859,-0.1915,-0.1919,-0.1916,-0.1952,-0.1955,-0.1945,-0.1947,-0.1948,-0.1949,0,0,0,0,0,0,0,-0.1894,-0.1909,-0.1877,-0.1873,-0.1873,-0.1854,-0.1854,-0.1854,-0.1859,-0.1859,-0.1859,-0.1859,-0.1932,-0.1934,-0.1937,-0.1948,0,0,-0.1945,-0.1946,0,0,0,0,0,0,0,0,-0.191,-0.1909,-0.1876,-0.1876,-0.1875,-0.1854,-0.1854,-0.1854,-0.1859,-0.1859,-0.1859,-0.1859,-0.1932,-0.1934,-0.1937,0,0,0,0,0,0,0,0,0,0,0,0,0,0,0,-0.1876,-0.1876,0,-0.1854,-0.1854,-0.1854,-0.1859,-0.1859,-0.1859,-0.1859,-0.1933,-0.1935,-0.1936,0,0,0,0,0,0,0,0,0,0,0,0,0,0,0,0,0,0,0,0,0,0,0,0,0,0,0,0,0,0,0,0,0,0,0,0,0,0,0,0,0,0,0,0,0,0,0,0,0,0,0,0,0,0,0,0,0,0,0,0,0,0,0,0,0,0,0,0,0]}],[{"header":{"parameterUnit":"kt","parameterCategory":2,"dx":1,"dy":1,"la1":30.253999710083008,"la2":30.299108505249023,"lo1":-89.0895004272461,"lo2":-89.04439544677734,"nx":28,"ny":28,"refTime":"2022-10-04T21:00:00:Z","depth":"4","parameterNumber":3,"parameterNumberName":"V-component_of_CURRENTS"},"data":[-0.0278,-0.0368,-0.0401,-0.0626,-0.0763,-0.1009,-0.1139,-0.1144,-0.1062,-0.1031,-0.0731,-0.0684,-0.0139,-0.0397,0.0354,0.045,0.0516,0.1079,0.1084,0.1166,0.1159,0.1153,0.103,0,0,0,0,0,-0.0251,-0.0293,-0.0443,-0.0609,-0.0845,-0.0983,-0.1164,-0.1193,-0.1199,-0.1116,-0.1075,-0.0737,-0.0237,-0.0043,0.0343,0.0402,0.0858,0.085,0.0909,0.1162,0.1154,0.1037,0,0,0,0,0,0,-0.0221,-0.0284,-0.0387,-0.0557,-0.0796,-0.098,-0.1053,-0.1099,-0.115,-0.1102,-0.1054,-0.0726,-0.0558,-0.005,0.0345,0.0712,0.0783,0.0819,0.083,0.0827,0.0685,0.0574,0.0683,0,0,0,0,0,-0.0191,-0.0229,-0.0327,-0.0521,-0.0684,-0.0888,-0.1029,-0.1066,-0.1105,-0.1144,-0.1024,-0.0776,-0.0448,-0.0021,0.0396,0.0778,0.0911,0.1052,0.105,0.1008,0.0956,0.0995,0.0977,0.1125,0.1125,0.1124,0.1124,0,-0.0129,-0.0189,-0.0364,-0.0474,-0.0554,-0.0711,-0.0837,-0.091,-0.0969,-0.0978,-0.0983,-0.0761,-0.0592,-0.0042,0.0308,0.0843,0.0922,0.1031,0.0986,0.0941,0.0986,0.097,0.0955,0.1117,0.1118,0.1118,0.1119,0,-0.0093,-0.0153,-0.0287,-0.0427,-0.0495,-0.0594,-0.0769,-0.086,-0.0858,-0.0913,-0.0887,-0.0753,-0.0436,-0.0119,0.0285,0.0465,0.0788,0.0916,0.0757,0.0808,0.0951,0.0938,0.1107,0.111,0.1112,0.1113,0.1114,0,-0.0063,-0.015,-0.0256,-0.0318,-0.0471,-0.0515,-0.0654,-0.0679,-0.0717,-0.0768,-0.0633,-0.0611,-0.0303,-0.009,0.021,0.0541,0.0546,0.0756,0.0819,0.0691,0.068,0.0745,0.0739,0.0782,0.078,0.0779,0.0777,0,0.0004,-0.0122,-0.0224,-0.0264,-0.038,-0.0449,-0.0502,-0.0541,-0.0592,-0.0546,-0.0561,-0.0403,-0.0316,-0.0063,0.0253,0.0248,0.0549,0.0572,0.0763,0.0767,0.0734,0.0731,0.0776,0.0775,0.0775,0.0774,0.0774,0,0.004,-0.0029,-0.0141,-0.0271,-0.03,-0.0357,-0.0451,-0.0477,-0.0471,-0.045,-0.0392,-0.0299,-0.0175,-0.0061,0.0209,0.0156,0.0357,0.0479,0.049,0.0544,0.0606,0.0624,0.0644,0.0642,0.064,0.0638,0.0637,0,0.0105,0.0001,-0.0026,-0.0135,-0.0194,-0.0201,-0.0243,-0.0264,-0.0251,-0.026,-0.0166,-0.0136,-0.0013,0.0026,0.012,0.028,0.0374,0.0285,0.0556,0.0564,0.0568,0.0594,0.0409,0.061,0.0613,0.0616,0.0618,0,0.0163,0.008,0.0072,0.0011,-0.0017,-0.0052,-0.0081,-0.0113,-0.0153,-0.009,-0.0122,-0.0025,0.0045,0.0079,0.0162,0.0232,0.0341,0.0333,0.034,0.04,0.0545,0.0561,0.0579,0.04,0.0402,0.0404,0.0599,0,0.0168,0.0133,0.0112,0.0065,0.0045,0.0013,0.002,0.0013,0.0036,0.0048,0.0065,0.0152,0.0194,0.0221,0.0278,0.0319,0.037,0.0405,0.0429,0.0421,0.051,0.0524,0.0383,0.0384,0.0386,0.0387,0,0,0.0234,0.0189,0.0201,0.0161,0.0135,0.0173,0.0125,0.0139,0.0158,0.0147,0.0192,0.0253,0.0313,0.0317,0.0328,0.0361,0.0432,0.0356,0.042,0.0423,0.0426,0.051,0.0521,0.0389,0.039,0.039,0.0391,0,0.0233,0.0241,0.0208,0.0196,0.0187,0.0192,0.0186,0.0194,0.02,0.0206,0.0253,0.029,0.0339,0.0367,0.039,0.0378,0.0458,0.0403,0.0342,0.0429,0.043,0.0431,0.0513,0.0523,0.0394,0.0394,0.0394,0,0.0262,0.0255,0.0247,0.0241,0.0242,0.0217,0.0254,0.0245,0.0226,0.0294,0.0287,0.0339,0.0392,0.0407,0.0421,0.0432,0.0487,0.0451,0.0446,0.0434,0.0526,0.0527,0.0527,0.0518,0.0518,0.0518,0,0,0.0263,0.0245,0.0252,0.0245,0.0242,0.0254,0.0254,0.026,0.0277,0.0284,0.0316,0.0356,0.0389,0.0404,0.0441,0.0456,0.0516,0.0461,0.0456,0.0451,0.0436,0.0526,0.0526,0.0518,0.0518,0.0518,0,0,0.0268,0.0261,0.0269,0.0261,0.0262,0.0273,0.0265,0.0278,0.0295,0.0298,0.0344,0.0355,0.0379,0.0414,0.0405,0.0443,0.0474,0.0476,0.0401,0.0395,0.0389,0.0359,0.0441,0,0,0,0,0,0.027,0.026,0.0267,0.0268,0.0274,0.0269,0.0271,0.0282,0.0294,0.0286,0.0319,0.0347,0.0419,0.0412,0.0422,0.0413,0.0516,0.0516,0.0516,0.0425,0.0418,0.0412,0,0,0,0,0,0,0.0271,0.0271,0.0268,0.0277,0.0279,0.027,0.029,0.0293,0.0295,0.0297,0.0339,0.0348,0.0377,0.0409,0.0418,0.0408,0.0438,0.0516,0.0516,0.0517,0.0423,0.0417,0.0412,0,0,0,0,0,0.0271,0.0271,0.0277,0.0277,0.0279,0.0293,0.0291,0.0293,0.0294,0.0337,0.0345,0.0302,0.0376,0.0387,0.0415,0.0403,0.0432,0.0436,0.0516,0.0516,0.0517,0.042,0,0,0,0,0,0,0.0271,0.0275,0.0278,0.0279,0.0281,0.0293,0.0295,0.0293,0.0336,0.0342,0.0304,0.0305,0.0376,0.0384,0.0392,0.0398,0.0428,0.0431,0.0433,0.0516,0.0516,0.0517,0,0,0,0,0,0,0.0275,0.0275,0.0278,0.0282,0.0283,0.0293,0.0295,0.0327,0.0338,0.0301,0.0303,0.0305,0.0379,0.0382,0.0388,0.0436,0.0424,0.0427,0.0429,0.043,0.0516,0.0517,0,0,0,0,0,0,0.0275,0.0276,0.0281,0.0283,0.0284,0.0298,0.0324,0.0339,0.031,0.03,0.0311,0.0311,0.0378,0.0384,0.0385,0.043,0.0435,0.0424,0.0426,0.0428,0.0429,0,0,0,0,0,0,0,0.0276,0.0267,0.0271,0.0283,0.0285,0.029,0.029,0.029,0.031,0.031,0.0311,0.0311,0.0406,0.041,0.0413,0.0426,0,0,0.0424,0.0425,0,0,0,0,0,0,0,0,0.0267,0.0267,0.0271,0.0271,0.0271,0.029,0.029,0.029,0.031,0.031,0.0311,0.0311,0.0407,0.041,0.0413,0,0,0,0,0,0,0,0,0,0,0,0,0,0,0,0.0271,0.0271,0,0.029,0.029,0.029,0.031,0.031,0.0311,0.0311,0.0408,0.041,0.0412,0,0,0,0,0,0,0,0,0,0,0,0,0,0,0,0,0,0,0,0,0,0,0,0,0,0,0,0,0,0,0,0,0,0,0,0,0,0,0,0,0,0,0,0,0,0,0,0,0,0,0,0,0,0,0,0,0,0,0,0,0,0,0,0,0,0,0,0,0]}]]]